SCP
0 0 0 -0 -0 -1 -0 -0 0 -0 0 1 0 1 0 0 0 0 0 0 0 0 0 0 0 0 0 0 0 0 0 0 0 -0 0 0 0 0 0 0 0 0 0
0 0 0 0 0 -0 -0 0 0 0 1 1 0 0 0 1 0 0 1 0 0 0 0 0 0 0 0 0 0 0 0 0 0 0 0 0 0 0 0 0 0 0 0
-0 0 0 0 0 0 1 1 1 0 1 1 1 1 1 0 0 0 0 0 0 0 0 0 0 0 0 0 0 0 0 0 0 0 0 0 0 0 0 0 0 0 0
0 0 0 0 0 0 1 1 2 2 1 1 1 1 1 0 1 1 1 0 0 0 0 0 0 0 0 0 0 0 0 0 0 0 0 0 0 0 0 0 0 0 0
0 0 0 0 1 1 1 2 3 2 1 1 1 1 0 0 0 1 1 0 0 0 0 0 0 0 0 0 0 0 0 0 0 0 0 0 0 0 0 0 0 0 0
0 0 0 1 1 1 2 3 3 2 1 1 1 1 0 0 1 1 1 1 0 0 0 0 0 0 0 0 0 0 0 0 0 0 0 0 0 0 0 0 0 0 0
0 1 1 2 1 2 2 2 3 2 1 1 1 1 1 1 1 1 1 0 0 1 0 0 0 0 0 0 0 0 0 0 0 0 0 0 0 0 0 0 0 0 0
0 0 1 2 1 1 1 1 1 1 1 0 1 1 1 1 1 1 0 0 0 0 1 1 1 1 0 0 0 0 0 0 0 0 0 0 0 0 0 0 0 0 0
0 0 0 0 0 0 0 0 0 0 0 0 0 0 1 1 1 1 1 1 1 1 1 1 1 1 1 1 0 1 1 1 0 0 0 0 0 0 0 0 0 0 0
0 0 0 1 0 0 0 0 0 0 -0 0 0 0 1 1 1 1 0 0 0 0 0 1 1 1 1 1 0 0 0 0 0 0 0 0 0 0 0 0 0 0 0
0 0 0 0 0 0 0 0 0 1 1 1 0 1 1 0 0 0 0 0 0 0 1 1 1 1 0 0 0 0 1 0 0 0 0 0 0 0 0 0 0 0 0
0 0 0 0 0 -0 0 0 0 0 0 0 -0 0 0 0 0 0 0 0 0 1 1 1 1 0 0 0 0 0 0 0 0 0 0 0 0 0 0 0 0 0 0
0 0 0 0 0 0 0 0 0 0 0 0 0 0 0 0 0 0 0 1 1 0 0 0 0 0 0 0 0 0 0 0 0 0 0 0 0 0 0 0 0 0 0
1 1 1 0 0 0 -0 -0 -0 -0 -0 0 0 0 0 0 1 1 1 1 0 0 0 0 0 0 0 0 0 0 0 0 0 0 0 0 0 0 0 0 0 0 0
0 1 1 1 1 -0 -0 -0 -0 -0 0 0 1 1 1 0 0 0 0 0 0 0 0 0 0 0 0 0 0 0 0 0 0 0 0 0 0 0 0 0 0 0 0
0 0 0 0 0 0 0 0 -0 -0 0 1 1 0 0 0 0 0 0 0 0 0 0 0 0 0 0 0 0 0 0 0 0 0 0 0 0 0 0 0 0 0 0
1 0 0 0 0 0 0 0 0 0 0 0 0 0 0 0 0 0 0 0 0 0 0 0 0 0 0 0 0 0 0 0 0 0 0 0 0 0 0 0 0 0 0
1 0 0 0 0 0 0 0 0 0 0 0 0 0 0 0 0 0 0 0 0 0 0 0 0 0 0 0 0 0 0 0 0 0 0 0 0 0 0 0 0 0 0
1 1 0 0 0 0 0 0 0 0 0 0 0 0 0 0 0 0 0 0 0 0 0 0 0 0 0 0 0 0 0 0 0 0 0 0 0 0 0 0 0 0 0
1 0 1 0 0 0 0 0 0 0 0 0 0 0 0 0 0 0 0 0 0 0 0 0 0 0 0 0 -0 0 0 0 0 0 0 0 0 0 0 0 0 0 0
0 0 0 0 0 0 0 0 0 0 0 0 0 0 0 0 0 0 0 0 0 0 0 0 0 0 0 0 0 0 0 0 0 0 0 0 0 0 0 0 0 0 0
0 0 0 0 0 0 0 0 0 0 0 0 0 0 0 0 0 0 0 0 0 0 0 0 0 0 0 0 0 0 0 0 0 0 0 0 0 0 0 0 0 0 0
0 0 0 0 0 0 0 0 0 0 0 0 0 0 0 0 0 0 0 0 0 0 0 0 0 0 0 0 0 0 0 0 0 0 0 0 -0 0 0 0 0 0 0
0 0 0 0 0 0 0 0 0 0 0 0 0 0 0 0 0 0 0 0 0 0 0 0 0 0 0 0 0 0 0 0 0 0 0 0 0 0 0 0 0 0 0
0 0 0 0 0 0 0 0 0 0 0 0 0 0 0 0 0 0 0 0 0 0 0 0 0 0 0 0 0 -0 0 0 0 0 0 0 0 0 0 0 0 0 0
0 0 0 0 0 0 0 0 0 0 0 0 0 0 0 0 0 0 0 0 0 0 0 0 0 0 0 0 -0 0 0 0 0 0 0 0 0 0 0 0 0 0 0
Wind_Speed_500mb
47 57 47 38 47 48 44 43 40 38 40 39 32 34 23 14 8 9 19 17 19 19 22 22 21 10 5 13 11 19 18 25 19 27 21 35 34 28 31 30 31 27 23
57 51 49 44 37 41 47 44 42 40 43 42 30 28 19 15 10 18 18 21 23 20 23 25 20 20 16 17 22 23 30 26 27 26 24 22 36 41 40 39 41 38 32
71 62 55 56 55 45 43 48 44 45 40 42 32 31 25 27 26 22 21 17 16 14 14 15 18 25 23 26 27 32 28 29 33 33 29 19 22 17 39 58 55 49 44
73 70 65 61 55 46 44 46 49 46 45 39 36 46 35 24 25 20 18 20 18 9 8 11 13 21 24 29 28 30 29 27 34 37 43 45 43 46 33 28 62 60 55
79 77 75 62 55 43 42 43 49 49 47 44 42 44 34 34 22 27 26 21 18 10 9 13 14 14 15 16 25 33 32 33 32 47 40 36 51 52 45 38 34 57 68
75 68 68 57 55 45 43 40 48 52 49 48 52 42 34 29 36 33 28 26 18 19 17 18 18 13 19 18 20 26 39 43 44 44 53 50 49 40 49 51 47 51 54
64 53 68 59 55 46 42 33 36 43 45 47 56 46 35 32 32 36 25 25 24 20 19 22 23 19 18 21 24 28 31 40 50 53 54 61 61 57 52 45 47 47 49
56 47 47 52 43 49 42 25 3 31 35 37 46 50 45 36 33 33 32 30 24 24 29 29 25 31 31 31 35 36 35 38 44 51 56 60 67 70 70 63 49 53 57
40 44 52 47 55 47 35 34 17 21 30 39 42 41 33 30 28 26 25 21 29 25 32 32 36 34 38 41 41 43 45 46 49 52 57 62 68 67 75 78 72 55 57
38 27 29 38 52 45 21 27 7 48 28 37 43 39 30 26 31 29 30 27 26 35 30 38 41 39 36 41 45 44 45 52 53 56 62 64 68 73 75 75 68 73 65
35 22 29 42 42 32 28 14 21 41 37 35 42 44 36 32 35 36 28 27 30 23 23 26 27 26 28 32 39 41 45 47 51 55 57 59 59 66 73 82 79 68 71
30 24 14 16 19 12 12 28 47 49 18 15 41 46 36 30 26 26 26 15 15 16 14 20 29 36 32 32 33 34 38 43 44 45 47 45 50 62 71 81 90 50 53
40 38 38 26 26 10 13 41 58 50 57 16 18 25 26 13 13 19 16 7 6 17 30 34 29 24 28 31 32 38 32 32 32 35 37 36 38 41 42 50 43 42 46
61 57 53 42 31 31 32 25 26 16 11 12 10 5 1 1 8 3 7 11 24 34 35 41 40 31 29 26 24 33 34 31 31 33 38 43 40 41 43 39 35 34 38
52 51 55 53 46 38 34 26 23 19 13 7 5 9 3 8 14 14 18 24 30 33 39 42 39 38 32 36 34 34 36 38 38 39 39 38 40 43 40 40 39 41 42
54 46 41 42 42 40 39 32 23 17 11 10 16 20 13 4 3 11 17 27 33 36 36 35 35 32 32 37 43 41 43 42 43 49 49 40 37 39 39 40 41 40 38
55 41 32 31 25 22 18 18 16 12 6 14 5 6 11 18 12 18 24 24 25 33 46 42 26 29 40 33 40 43 44 41 42 43 44 48 44 42 46 43 42 42 40
50 45 33 28 21 21 22 15 7 3 4 3 2 4 7 11 17 23 26 30 34 40 43 33 30 42 36 38 44 44 40 46 51 43 37 42 39 43 47 48 39 38 42
42 32 24 26 26 19 13 10 7 6 9 10 10 16 21 24 26 24 33 33 34 40 35 36 44 46 46 47 49 38 34 47 46 42 49 40 54 50 42 44 39 33 34
23 23 26 19 18 9 3 2 5 11 13 14 12 20 26 28 29 36 35 30 36 38 41 41 49 49 51 52 44 31 42 46 39 36 39 39 38 45 46 44 51 49 44
35 20 14 8 3 7 10 7 6 9 13 17 19 22 26 27 31 32 45 43 33 41 47 38 39 41 44 57 53 50 59 42 37 42 45 41 44 49 54 54 53 54 58
26 19 19 11 3 7 9 6 8 13 20 21 25 25 27 31 35 43 47 45 49 44 43 43 31 38 44 48 52 47 39 44 44 52 59 62 63 65 69 73 76 80 69
26 17 18 16 16 10 13 5 10 14 15 20 25 28 31 30 32 31 45 40 45 32 39 43 60 60 41 44 41 43 52 49 58 65 67 66 59 57 52 41 40 40 35
27 20 15 12 11 9 10 13 16 20 19 21 24 25 23 18 30 27 28 33 48 53 60 51 49 45 40 37 38 41 50 58 60 49 46 44 39 33 35 35 29 25 27
18 14 11 7 9 14 15 17 20 25 25 21 16 15 17 23 25 30 43 47 46 46 39 32 35 36 41 40 41 49 52 43 43 43 41 45 46 43 42 28 17 12 23
8 11 7 3 4 10 16 20 20 20 21 21 22 26 31 40 45 44 42 36 33 33 30 38 34 28 35 41 41 35 28 26 40 44 47 51 63 69 34 34 17 16 12
Wind_Direction_500mb
190 190 182 196 198 213 214 222 214 221 218 219 215 203 208 202 258 252 245 263 269 268 268 269 276 252 338 259 258 267 252 237 231 256 254 245 255 259 252 261 263 268 268
193 194 196 196 196 207 215 221 221 229 220 226 225 214 209 231 249 247 248 257 251 267 268 267 261 234 207 233 246 251 252 256 229 247 260 256 241 242 248 245 248 262 258
192 196 202 203 208 208 212 219 213 239 237 226 221 199 212 212 209 228 213 246 248 254 275 266 241 235 235 237 247 243 249 253 232 224 241 241 244 222 245 239 247 249 253
194 199 203 206 210 216 220 224 224 228 234 230 225 210 213 228 230 243 229 225 264 281 15 10 290 244 247 244 259 249 255 260 249 226 231 242 255 269 268 258 244 248 251
199 204 209 207 204 209 217 223 228 231 229 225 220 212 214 203 212 205 223 246 267 250 311 324 334 342 300 277 257 255 250 258 264 238 237 241 249 258 259 259 244 238 247
198 203 208 199 200 206 217 225 226 229 232 226 216 204 204 201 213 209 230 245 244 266 271 291 295 311 321 304 291 270 255 252 255 255 253 251 251 255 258 255 261 251 249
182 171 189 190 190 202 213 227 233 235 234 229 213 206 206 215 222 232 240 230 236 248 250 265 277 287 287 306 310 293 275 254 255 261 258 254 253 253 250 257 260 261 260
171 174 178 177 183 183 186 165 264 279 255 248 224 214 211 219 234 254 254 247 242 258 264 268 277 288 285 296 299 297 292 282 271 266 264 263 258 257 255 255 262 264 255
140 144 160 170 171 159 134 136 204 259 280 256 246 232 229 229 235 243 243 255 256 277 285 279 281 285 290 292 290 288 287 287 282 275 270 266 266 269 263 253 253 256 264
116 120 129 159 176 182 195 224 257 212 227 239 255 258 228 231 250 252 256 257 270 298 284 280 282 280 289 294 291 290 288 286 287 282 280 277 270 267 266 269 254 250 251
124 132 134 150 163 192 196 206 203 195 220 262 247 237 231 228 247 253 248 277 304 320 306 305 311 308 316 311 300 299 297 297 298 296 289 284 282 278 273 268 263 254 251
75 79 84 111 105 75 186 202 182 200 225 22 243 232 226 234 246 243 293 317 326 313 335 337 333 329 327 322 326 325 317 309 302 301 299 299 297 293 286 273 258 259 251
72 73 72 73 96 118 203 189 202 224 264 239 219 237 234 245 265 277 301 342 310 308 318 319 318 316 316 320 316 320 317 317 323 322 322 329 324 320 313 307 317 319 262
91 85 82 97 102 119 128 149 180 172 144 225 197 175 31 157 302 272 204 268 298 305 312 315 316 308 316 326 329 326 322 315 313 312 314 319 322 319 316 311 311 301 290
103 100 99 105 105 106 114 113 105 109 137 159 175 122 116 262 196 250 283 300 302 305 303 308 315 311 318 324 329 336 334 331 322 317 316 313 313 312 313 308 309 309 299
110 107 109 107 107 112 111 113 111 119 123 178 174 166 138 132 303 306 313 304 301 305 323 340 336 334 338 337 329 327 325 322 322 326 324 317 314 316 317 313 310 308 302
123 123 133 123 116 107 104 114 113 108 118 118 169 266 243 271 289 310 319 327 337 347 344 333 335 330 329 333 341 339 335 330 323 329 328 323 319 315 315 308 302 297 302
136 145 137 126 112 95 83 80 66 82 7 176 56 33 348 329 319 314 320 324 327 335 349 344 333 331 333 320 316 322 316 320 313 311 310 315 313 312 315 310 305 302 291
143 140 123 124 132 145 140 132 40 330 316 327 347 350 338 331 323 317 322 320 317 326 339 329 324 328 326 321 336 300 325 325 321 313 313 311 304 302 305 314 318 301 294
128 126 135 150 169 178 131 178 302 312 314 294 323 334 331 331 331 327 314 306 316 321 311 311 313 315 318 321 323 314 320 317 313 312 306 306 303 300 298 302 308 307 298
131 128 122 123 228 310 303 328 286 308 311 309 313 319 326 328 327 322 321 320 315 320 318 315 325 325 330 331 332 322 315 320 308 306 304 300 290 287 288 287 293 298 300
131 129 115 92 58 331 320 264 259 290 301 308 317 322 313 311 309 315 317 315 311 319 314 300 327 327 318 320 319 311 312 316 313 314 310 306 298 292 287 284 286 288 288
121 118 128 109 74 45 20 348 323 318 323 307 314 317 308 314 323 326 325 311 303 308 317 336 317 321 322 322 316 302 308 316 318 318 313 310 306 306 305 303 294 286 267
123 123 129 116 81 26 8 349 336 331 320 314 320 329 314 333 324 312 325 326 325 328 330 335 320 319 324 327 327 325 329 326 324 326 333 334 333 329 326 320 308 275 273
95 86 72 32 335 317 319 315 320 321 321 317 317 310 302 335 332 325 326 334 335 340 337 332 330 330 328 335 334 337 336 348 355 8 9 8 355 342 333 332 334 294 305
67 44 54 60 16 333 332 335 316 310 311 311 310 309 316 324 321 327 332 332 326 331 320 321 322 333 339 334 332 338 359 45 32 38 31 30 36 26 17 18 3 331 332
Wind_Speed_850mb
47 57 47 38 47 48 44 43 40 38 40 39 32 34 23 14 8 9 19 17 19 19 22 22 21 10 5 13 11 19 18 25 19 27 21 35 34 28 31 30 31 27 23
57 51 49 44 37 41 47 44 42 40 43 42 30 28 19 15 10 18 18 21 23 20 23 25 20 20 16 17 22 23 30 26 27 26 24 22 36 41 40 39 41 38 32
71 62 55 56 55 45 43 48 44 45 40 42 32 31 25 27 26 22 21 17 16 14 14 15 18 25 23 26 27 32 28 29 33 33 29 19 22 17 39 58 55 49 44
73 70 65 61 55 46 44 46 49 46 45 39 36 46 35 24 25 20 18 20 18 9 8 11 13 21 24 29 28 30 29 27 34 37 43 45 43 46 33 28 62 60 55
79 77 75 62 55 43 42 43 49 49 47 44 42 44 34 34 22 27 26 21 18 10 9 13 14 14 15 16 25 33 32 33 32 47 40 36 51 52 45 38 34 57 68
75 68 68 57 55 45 43 40 48 52 49 48 52 42 34 29 36 33 28 26 18 19 17 18 18 13 19 18 20 26 39 43 44 44 53 50 49 40 49 51 47 51 54
64 53 68 59 55 46 42 33 36 43 45 47 56 46 35 32 32 36 25 25 24 20 19 22 23 19 18 21 24 28 31 40 50 53 54 61 61 57 52 45 47 47 49
56 47 47 52 43 49 42 25 3 31 35 37 46 50 45 36 33 33 32 30 24 24 29 29 25 31 31 31 35 36 35 38 44 51 56 60 67 70 70 63 49 53 57
40 44 52 47 55 47 35 34 17 21 30 39 42 41 33 30 28 26 25 21 29 25 32 32 36 34 38 41 41 43 45 46 49 52 57 62 68 67 75 78 72 55 57
38 27 29 38 52 45 21 27 7 48 28 37 43 39 30 26 31 29 30 27 26 35 30 38 41 39 36 41 45 44 45 52 53 56 62 64 68 73 75 75 68 73 65
35 22 29 42 42 32 28 14 21 41 37 35 42 44 36 32 35 36 28 27 30 23 23 26 27 26 28 32 39 41 45 47 51 55 57 59 59 66 73 82 79 68 71
30 24 14 16 19 12 12 28 47 49 18 15 41 46 36 30 26 26 26 15 15 16 14 20 29 36 32 32 33 34 38 43 44 45 47 45 50 62 71 81 90 50 53
40 38 38 26 26 10 13 41 58 50 57 16 18 25 26 13 13 19 16 7 6 17 30 34 29 24 28 31 32 38 32 32 32 35 37 36 38 41 42 50 43 42 46
61 57 53 42 31 31 32 25 26 16 11 12 10 5 1 1 8 3 7 11 24 34 35 41 40 31 29 26 24 33 34 31 31 33 38 43 40 41 43 39 35 34 38
52 51 55 53 46 38 34 26 23 19 13 7 5 9 3 8 14 14 18 24 30 33 39 42 39 38 32 36 34 34 36 38 38 39 39 38 40 43 40 40 39 41 42
54 46 41 42 42 40 39 32 23 17 11 10 16 20 13 4 3 11 17 27 33 36 36 35 35 32 32 37 43 41 43 42 43 49 49 40 37 39 39 40 41 40 38
55 41 32 31 25 22 18 18 16 12 6 14 5 6 11 18 12 18 24 24 25 33 46 42 26 29 40 33 40 43 44 41 42 43 44 48 44 42 46 43 42 42 40
50 45 33 28 21 21 22 15 7 3 4 3 2 4 7 11 17 23 26 30 34 40 43 33 30 42 36 38 44 44 40 46 51 43 37 42 39 43 47 48 39 38 42
42 32 24 26 26 19 13 10 7 6 9 10 10 16 21 24 26 24 33 33 34 40 35 36 44 46 46 47 49 38 34 47 46 42 49 40 54 50 42 44 39 33 34
23 23 26 19 18 9 3 2 5 11 13 14 12 20 26 28 29 36 35 30 36 38 41 41 49 49 51 52 44 31 42 46 39 36 39 39 38 45 46 44 51 49 44
35 20 14 8 3 7 10 7 6 9 13 17 19 22 26 27 31 32 45 43 33 41 47 38 39 41 44 57 53 50 59 42 37 42 45 41 44 49 54 54 53 54 58
26 19 19 11 3 7 9 6 8 13 20 21 25 25 27 31 35 43 47 45 49 44 43 43 31 38 44 48 52 47 39 44 44 52 59 62 63 65 69 73 76 80 69
26 17 18 16 16 10 13 5 10 14 15 20 25 28 31 30 32 31 45 40 45 32 39 43 60 60 41 44 41 43 52 49 58 65 67 66 59 57 52 41 40 40 35
27 20 15 12 11 9 10 13 16 20 19 21 24 25 23 18 30 27 28 33 48 53 60 51 49 45 40 37 38 41 50 58 60 49 46 44 39 33 35 35 29 25 27
18 14 11 7 9 14 15 17 20 25 25 21 16 15 17 23 25 30 43 47 46 46 39 32 35 36 41 40 41 49 52 43 43 43 41 45 46 43 42 28 17 12 23
8 11 7 3 4 10 16 20 20 20 21 21 22 26 31 40 45 44 42 36 33 33 30 38 34 28 35 41 41 35 28 26 40 44 47 51 63 69 34 34 17 16 12
Wind_Direction_850mb
190 190 182 196 198 213 214 222 214 221 218 219 215 203 208 202 258 252 245 263 269 268 268 269 276 252 338 259 258 267 252 237 231 256 254 245 255 259 252 261 263 268 268
193 194 196 196 196 207 215 221 221 229 220 226 225 214 209 231 249 247 248 257 251 267 268 267 261 234 207 233 246 251 252 256 229 247 260 256 241 242 248 245 248 262 258
192 196 202 203 208 208 212 219 213 239 237 226 221 199 212 212 209 228 213 246 248 254 275 266 241 235 235 237 247 243 249 253 232 224 241 241 244 222 245 239 247 249 253
194 199 203 206 210 216 220 224 224 228 234 230 225 210 213 228 230 243 229 225 264 281 15 10 290 244 247 244 259 249 255 260 249 226 231 242 255 269 268 258 244 248 251
199 204 209 207 204 209 217 223 228 231 229 225 220 212 214 203 212 205 223 246 267 250 311 324 334 342 300 277 257 255 250 258 264 238 237 241 249 258 259 259 244 238 247
198 203 208 199 200 206 217 225 226 229 232 226 216 204 204 201 213 209 230 245 244 266 271 291 295 311 321 304 291 270 255 252 255 255 253 251 251 255 258 255 261 251 249
182 171 189 190 190 202 213 227 233 235 234 229 213 206 206 215 222 232 240 230 236 248 250 265 277 287 287 306 310 293 275 254 255 261 258 254 253 253 250 257 260 261 260
171 174 178 177 183 183 186 165 264 279 255 248 224 214 211 219 234 254 254 247 242 258 264 268 277 288 285 296 299 297 292 282 271 266 264 263 258 257 255 255 262 264 255
140 144 160 170 171 159 134 136 204 259 280 256 246 232 229 229 235 243 243 255 256 277 285 279 281 285 290 292 290 288 287 287 282 275 270 266 266 269 263 253 253 256 264
116 120 129 159 176 182 195 224 257 212 227 239 255 258 228 231 250 252 256 257 270 298 284 280 282 280 289 294 291 290 288 286 287 282 280 277 270 267 266 269 254 250 251
124 132 134 150 163 192 196 206 203 195 220 262 247 237 231 228 247 253 248 277 304 320 306 305 311 308 316 311 300 299 297 297 298 296 289 284 282 278 273 268 263 254 251
75 79 84 111 105 75 186 202 182 200 225 22 243 232 226 234 246 243 293 317 326 313 335 337 333 329 327 322 326 325 317 309 302 301 299 299 297 293 286 273 258 259 251
72 73 72 73 96 118 203 189 202 224 264 239 219 237 234 245 265 277 301 342 310 308 318 319 318 316 316 320 316 320 317 317 323 322 322 329 324 320 313 307 317 319 262
91 85 82 97 102 119 128 149 180 172 144 225 197 175 31 157 302 272 204 268 298 305 312 315 316 308 316 326 329 326 322 315 313 312 314 319 322 319 316 311 311 301 290
103 100 99 105 105 106 114 113 105 109 137 159 175 122 116 262 196 250 283 300 302 305 303 308 315 311 318 324 329 336 334 331 322 317 316 313 313 312 313 308 309 309 299
110 107 109 107 107 112 111 113 111 119 123 178 174 166 138 132 303 306 313 304 301 305 323 340 336 334 338 337 329 327 325 322 322 326 324 317 314 316 317 313 310 308 302
123 123 133 123 116 107 104 114 113 108 118 118 169 266 243 271 289 310 319 327 337 347 344 333 335 330 329 333 341 339 335 330 323 329 328 323 319 315 315 308 302 297 302
136 145 137 126 112 95 83 80 66 82 7 176 56 33 348 329 319 314 320 324 327 335 349 344 333 331 333 320 316 322 316 320 313 311 310 315 313 312 315 310 305 302 291
143 140 123 124 132 145 140 132 40 330 316 327 347 350 338 331 323 317 322 320 317 326 339 329 324 328 326 321 336 300 325 325 321 313 313 311 304 302 305 314 318 301 294
128 126 135 150 169 178 131 178 302 312 314 294 323 334 331 331 331 327 314 306 316 321 311 311 313 315 318 321 323 314 320 317 313 312 306 306 303 300 298 302 308 307 298
131 128 122 123 228 310 303 328 286 308 311 309 313 319 326 328 327 322 321 320 315 320 318 315 325 325 330 331 332 322 315 320 308 306 304 300 290 287 288 287 293 298 300
131 129 115 92 58 331 320 264 259 290 301 308 317 322 313 311 309 315 317 315 311 319 314 300 327 327 318 320 319 311 312 316 313 314 310 306 298 292 287 284 286 288 288
121 118 128 109 74 45 20 348 323 318 323 307 314 317 308 314 323 326 325 311 303 308 317 336 317 321 322 322 316 302 308 316 318 318 313 310 306 306 305 303 294 286 267
123 123 129 116 81 26 8 349 336 331 320 314 320 329 314 333 324 312 325 326 325 328 330 335 320 319 324 327 327 325 329 326 324 326 333 334 333 329 326 320 308 275 273
95 86 72 32 335 317 319 315 320 321 321 317 317 310 302 335 332 325 326 334 335 340 337 332 330 330 328 335 334 337 336 348 355 8 9 8 355 342 333 332 334 294 305
67 44 54 60 16 333 332 335 316 310 311 311 310 309 316 324 321 327 332 332 326 331 320 321 322 333 339 334 332 338 359 45 32 38 31 30 36 26 17 18 3 331 332